#timestamp,LO_Frequency,Hit,StdDev 
1510135215.5,286046987.5,N
1510135235.3,286046989.9,N
1510135255.2,286046993.5,N
1510135275.9,286046998.0,N
1510135295.7,286046999.0,N
1510135315.6,286046998.6,N
1510135335.4,286046997.4,N
1510135355.3,286046995.9,N
1510135375.1,286046991.8,N
1510135395.8,286046995.8,N
1510135415.7,286046994.6,N
1510135435.5,286046994.4,N
1510135455.4,286046993.8,N
1510135475.2,286046993.6,N
1510135495.1,286046999.2,N
1510135496.0,286046999.2,N
1510135515.8,286047004.4,N
1510135535.6,286046998.1,N
1510135555.5,286046997.1,N
1510135575.3,286046998.2,N
1510135595.2,286046998.6,N
1510135615.9,286046999.5,N
1510135635.7,286046995.0,N
1510135655.6,286046993.7,N
1510135675.4,286046994.3,N
1510135695.3,286046995.8,N
1510135715.1,286046995.3,N
1510135735.8,286046990.3,N
1510135755.7,286046992.7,N
1510135775.5,286046995.9,N
1510135795.4,286046992.0,N
1510135815.2,286046990.4,Y
1510135835.1,286046992.0,P
1510135836.0,286046992.0,P
1510135855.8,286046992.4,P
1510135875.6,286046992.9,Y
1510135895.5,286047000.4,P
1510135915.3,286047002.4,N
1510135935.2,286046999.7,N
1510135955.0,286046998.7,N
1510135955.9,286046998.7,N
1510135975.8,286047000.2,N
1510135995.6,286047004.3,N
1510136015.4,286047002.9,N
1510136035.3,286047003.6,N
1510136055.1,286047001.0,N
1510136075.9,286046995.0,N
1510136095.7,286046997.4,N
1510136115.5,286046997.1,N
1510136135.4,286046993.4,N
1510136155.2,286046996.2,N
1510136175.1,286046991.2,N
1510136176.0,286046991.2,N
1510136195.8,286046991.8,N
1510136215.7,286046995.2,N
1510136235.5,286046997.5,N
1510136255.3,286046988.6,N
1510136275.2,286046990.4,N
1510136295.0,286046994.1,N
1510136295.9,286046994.1,N
1510136315.8,286046994.7,N
1510136335.6,286046996.4,N
1510136355.4,286046997.5,N
1510136375.3,286046994.9,N
1510136395.1,286046994.0,N
1510136415.9,286046993.5,N
1510136435.7,286046992.1,N
1510136455.5,286046990.3,N
1510136475.4,286046986.9,Y
1510136495.2,286046993.0,P
1510136515.1,286046994.0,P
1510136516.0,286046994.0,P
1510136535.8,286046999.8,N
1510136555.7,286046994.9,N
1510136575.5,286046998.4,N
1510136595.3,286046999.3,N
1510136615.2,286046995.3,N
1510136635.0,286046997.6,N
1510136635.9,286046997.6,N
1510136655.8,286047002.3,N
1510136675.6,286047003.4,N
1510136695.4,286047002.9,N
1510136715.3,286047005.0,N
1510136735.1,286047000.6,N
1510136755.9,286047000.6,N
1510136775.7,286047000.7,N
1510136795.5,286047007.1,N
1510136815.4,286047005.2,N
1510136835.2,286047004.3,N
1510136855.1,286047000.6,N
1510136856.0,286047000.6,N
1510136875.8,286047001.2,N
1510136895.7,286046998.8,N
1510136915.5,286047000.7,N
1510136935.3,286046999.9,N
1510136955.2,286046998.8,N
1510136975.0,286046999.9,N
1510136975.9,286046999.9,N
1510136995.8,286046998.4,N
1510137015.6,286046999.0,N
1510137035.4,286046998.8,N
1510137055.3,286047001.2,N
1510137075.1,286047000.4,N
1510137095.9,286047000.5,N
1510137115.7,286046998.4,N
1510137135.6,286047002.1,N
1510137155.4,286047005.0,N
1510137175.2,286047007.9,Y
1510137195.1,286047004.5,P
1510137196.0,286047004.5,N
1510137215.8,286047006.1,P
1510137235.7,286047006.1,Y
1510137255.5,286047006.7,P
1510137275.4,286047008.2,P
1510137295.2,286047013.9,P
1510137315.1,286047013.7,Y
1510137316.0,286047013.7,P
1510137335.8,286047002.7,N
1510137355.6,286046997.4,N
1510137375.5,286046993.4,N
1510137395.3,286046996.4,N
1510137415.2,286046991.8,N
1510137435.9,286046990.2,N
1510137455.7,286046991.4,N
1510137475.6,286046989.9,N
1510137495.4,286046985.7,N
1510137515.3,286046986.4,N
1510137535.1,286046981.5,N
1510137555.8,286046980.9,N
1510137575.7,286046984.4,N
1510137595.5,286046982.8,N
1510137615.4,286046983.6,N
1510137635.2,286046980.8,N
1510137655.0,286046980.8,N
1510137656.0,286046980.8,N
1510137675.8,286046982.7,N
1510137695.6,286046983.2,N
1510137715.5,286046993.2,N
1510137735.3,286046992.5,N
1510137755.2,286046987.5,N
1510137775.9,286046992.3,N
1510137795.7,286046992.8,N
1510137815.6,286046991.5,N
1510137835.4,286046989.4,N
1510137855.3,286046987.1,N
1510137875.1,286046985.3,N
1510137895.8,286046983.6,N
1510137915.7,286046988.4,N
1510137935.5,286046980.8,Y
1510137955.4,286046994.7,P
1510137975.2,286046996.0,N
1510137995.1,286046992.7,N
1510137996.0,286046992.7,N
1510138015.8,286046994.5,N
1510138035.6,286046996.7,N
1510138055.5,286046995.0,N
1510138075.3,286046995.6,N
1510138095.2,286046996.0,N
1510138115.9,286046989.6,Y
1510138135.8,286046989.0,P
1510138155.6,286046989.5,P
1510138175.4,286046993.4,N
1510138195.3,286046994.1,N
1510138215.1,286046994.7,N
1510138235.9,286046993.4,N
1510138255.7,286046994.1,N
1510138275.5,286046994.9,N
1510138295.4,286047000.0,N
1510138315.2,286047001.6,N
1510138335.1,286047002.5,N
1510138336.0,286047002.5,N
1510138355.8,286047000.5,N
1510138375.6,286046995.8,N
1510138395.5,286046996.0,N
1510138415.3,286046995.2,N
1510138435.2,286046997.8,N
1510138455.0,286046997.6,N
1510138455.9,286046997.6,N
1510138475.8,286046996.7,N
1510138495.6,286046995.2,N
1510138515.4,286046995.9,N
1510138535.3,286046993.4,N
1510138555.1,286046995.5,N
1510138575.9,286046996.3,N
1510138595.7,286046993.0,N
1510138615.5,286046992.0,N
1510138635.4,286046993.3,N
1510138655.2,286046994.4,N
1510138675.1,286047000.5,N
1510138676.0,286047000.5,N
1510138695.8,286047008.6,N
1510138715.7,286047013.1,Y
1510138735.5,286047022.0,P
1510138755.3,286047019.6,N
1510138775.2,286047014.8,N
1510138795.0,286047015.1,N
1510138795.9,286047015.1,N
